St. Petersburg Airport, FL

8:16 PM EDT on March 24, 2017 (GMT -0400)
Saint Petersburg-Clearwater International

Weather History for KPIE - January, 2007

Change the Weather History Date:

Thursday, January 18, 2007

  Actual Average Record
Temperature  
Mean Temperature 66 °F -  
Max Temperature 72 °F 70 °F 80 °F (1949)
Min Temperature 60 °F 54 °F 33 °F (1959)
Cooling Degree Days 1    
Growing Degree Days 16 (Base 50)    
Moisture  
Dew Point 60 °F    
Average Humidity 87    
Maximum Humidity 94    
Minimum Humidity 71    
Precipitation  
Precipitation 0.00 in - - ()
Sea Level Pressure  
Sea Level Pressure 30.28 in    
Wind  
Wind Speed 7 mph (NNE)    
Max Wind Speed 13 mph    
Max Gust Speed -    
Visibility 5 miles    
Events Fog    
Averages and records for this station are not official NWS values.
T = Trace of Precipitation, MM = Missing Value Source: NWS Daily Summary

Daily Weather History Graph

Daily Weather History Graph

Search for Another Location

Airport or City:

Trip Planner

Search our weather history database for the weather conditions in past years. The results will help you decide how hot, cold, wet, or windy it might be!

Date:

Astronomy

Jan. 18, 2007 Rise Set
Actual Time 7:22 AM EST 5:59 PM EST
Civil Twilight 6:57 AM EST 6:24 PM EST
Nautical Twilight 6:29 AM EST 6:53 PM EST
Astronomical Twilight 6:00 AM EST 7:21 PM EST
Moon 7:09 AM EST (1/18) 5:34 PM EST (1/18)
Length of Visible Light 11h 27m
Length of Day
10h 36m
Waning Crescent, 0% of the Moon is Illuminated
Jan 18
Waning Crescent
Jan 18
New
Jan 25
First Quarter
Feb 2
Full
Feb 10
Last Quarter

Hourly Weather History & Observations

Time (EST) Temp. Dew Point Humidity Pressure Visibility Wind Dir Wind Speed Gust Speed Precip Events Conditions
12:53 AM 63.0 °F 57.9 °F 84% 30.31 in 10.0 mi NE 8.1 mph - N/A   Overcast
1:32 AM 62.6 °F 59.0 °F 88% 30.30 in 9.0 mi NE 9.2 mph - N/A   Overcast
1:53 AM 62.1 °F 59.0 °F 90% 30.30 in 7.0 mi NE 8.1 mph - N/A   Overcast
2:27 AM 62.6 °F 60.8 °F 94% 30.28 in 2.0 mi NE 5.8 mph - N/A   Overcast
2:48 AM 62.6 °F 60.8 °F 94% 30.28 in 3.0 mi NE 6.9 mph - N/A   Overcast
2:53 AM 62.1 °F 59.0 °F 90% 30.27 in 3.0 mi NNE 6.9 mph - N/A   Overcast
3:08 AM 62.6 °F 60.8 °F 94% 30.27 in 2.0 mi NNE 6.9 mph - N/A   Overcast
3:28 AM 62.6 °F 59.0 °F 88% 30.27 in 4.0 mi North 8.1 mph - N/A   Overcast
3:53 AM 62.1 °F 60.1 °F 93% 30.27 in 3.0 mi North 6.9 mph - N/A   Overcast
4:53 AM 62.1 °F 60.1 °F 93% 30.27 in 3.0 mi NNE 4.6 mph - N/A   Overcast
5:41 AM 62.6 °F 60.8 °F 94% 30.28 in 2.5 mi NNE 8.1 mph - N/A   Overcast
5:53 AM 62.1 °F 60.1 °F 93% 30.28 in 1.5 mi NNE 5.8 mph - N/A   Overcast
6:53 AM 62.1 °F 59.0 °F 90% 30.28 in 1.5 mi NE 5.8 mph - N/A   Overcast
7:15 AM 62.6 °F 60.8 °F 94% 30.28 in 0.8 mi ENE 4.6 mph - N/A   Overcast
7:53 AM 62.1 °F 60.1 °F 93% 30.28 in 0.2 mi East 3.5 mph - N/A   Overcast
8:53 AM 62.1 °F 60.1 °F 93% 30.32 in 0.2 mi NNW 8.1 mph - N/A Fog Fog
9:53 AM 63.0 °F 61.0 °F 93% 30.32 in 0.5 mi North 4.6 mph - N/A Fog Fog
10:16 AM 62.6 °F 60.8 °F 94% 30.33 in 1.0 mi North 4.6 mph - N/A   Overcast
10:36 AM 64.4 °F 60.8 °F 88% 30.33 in 2.0 mi North 5.8 mph - N/A   Overcast
10:48 AM 64.4 °F 60.8 °F 88% 30.33 in 3.0 mi NNW 5.8 mph - N/A   Overcast
10:53 AM 64.0 °F 61.0 °F 90% 30.33 in 3.0 mi NNE 6.9 mph - N/A   Overcast
11:53 AM 69.1 °F 62.1 °F 78% 30.31 in 7.0 mi Variable 3.5 mph - N/A   Scattered Clouds
12:53 PM 70.0 °F 62.1 °F 76% 30.29 in 9.0 mi North 5.8 mph - N/A   Mostly Cloudy
1:53 PM 70.0 °F 62.1 °F 76% 30.25 in 9.0 mi NNE 4.6 mph - N/A   Clear
2:53 PM 72.0 °F 62.1 °F 71% 30.25 in 10.0 mi NW 12.7 mph - N/A   Clear
3:53 PM 69.1 °F 60.1 °F 73% 30.24 in 10.0 mi NW 8.1 mph - N/A   Clear
4:32 PM 64.4 °F 59.0 °F 83% 30.25 in 7.0 mi NW 11.5 mph - N/A   Mostly Cloudy
4:53 PM 64.9 °F 57.9 °F 78% 30.25 in 8.0 mi NW 11.5 mph - N/A   Mostly Cloudy
5:53 PM 63.0 °F 57.9 °F 84% 30.26 in 6.0 mi NW 12.7 mph - N/A   Haze
6:53 PM 61.0 °F 57.0 °F 87% 30.26 in 8.0 mi NNW 9.2 mph - N/A   Overcast
7:53 PM 61.0 °F 57.0 °F 87% 30.27 in 7.0 mi NNW 5.8 mph - N/A   Mostly Cloudy
8:11 PM 60.8 °F 55.4 °F 82% 30.26 in 7.0 mi NNW 5.8 mph - N/A   Scattered Clouds
8:53 PM 61.0 °F 57.0 °F 87% 30.27 in 8.0 mi North 6.9 mph - N/A   Clear
9:53 PM 61.0 °F 57.0 °F 87% 30.27 in 8.0 mi NNE 6.9 mph - N/A   Clear
10:53 PM 62.1 °F 57.9 °F 86% 30.27 in 9.0 mi NE 4.6 mph - N/A   Clear
11:53 PM 62.1 °F 57.9 °F 86% 30.26 in 9.0 mi ENE 6.9 mph - N/A   Clear